FW5373 Weather Reports


Display with metric or nautical units.
time (UTC)temp
F
wind
direction
speed
MPH
gust
MPH
rain 1hr
in
rain 24hr
in
rain mn
in
humidity
%
barometer
mb
20260906124606 73 360 2.0 8.0 0.00 0.00 0.00 92 1017.5
20260906123107 73 360 1.0 6.0 0.00 0.00 0.00 92 1016.9
20260906121614 73 360 1.0 6.0 0.00 0.00 0.00 93 1016.7
20260906120108 72 360 1.0 8.0 0.00 0.00 0.00 93 1016.4
20260906114600 72 360 0.0 4.0 0.00 0.00 0.00 93 1016.2
20260906113055 72 0 0.0 4.0 0.00 0.00 0.00 94 1016.0
20260906111601 72 360 1.0 5.0 0.00 0.00 0.00 94 1016.0
20260906110057 72 360 0.0 4.0 0.00 0.00 0.00 94 1015.9
20260906104600 71 360 0.0 4.0 0.00 0.00 0.00 95 1015.8
20260906103104 71 0 0.0 6.0 0.00 0.00 0.00 95 1015.7
20260906101620 71 0 0.0 3.0 0.00 0.00 0.00 94 1015.4
20260906100103 71 360 2.0 4.0 0.00 0.00 0.00 94 1015.4
20260906094607 71 360 2.0 5.0 0.00 0.00 0.00 94 1015.3
20260906093059 71 360 2.0 8.0 0.00 0.00 0.00 94 1015.4
20260906091600 71 360 3.0 9.0 0.00 0.00 0.00 93 1015.3
20260906090106 71 360 2.0 8.0 0.00 0.00 0.00 93 1015.4
20260906084606 71 360 3.0 10.0 0.00 0.00 0.00 93 1015.3
20260906083105 71 360 4.0 9.0 0.00 0.00 0.00 92 1015.1
20260906081602 71 360 3.0 13.0 0.00 0.00 0.00 92 1015.2
20260906080203 72 360 2.0 8.0 0.00 0.00 0.00 92 1015.2
20260906074559 72 360 2.0 9.0 0.00 0.00 0.00 91 1015.4
20260906073100 72 360 3.0 11.0 0.00 0.00 0.00 91 1015.6
20260906071605 72 360 2.0 14.0 0.00 0.00 0.00 89 1015.6
20260906070057 73 360 3.0 9.0 0.00 0.00 0.00 89 1015.7
20260906064558 74 360 2.0 10.0 0.00 0.00 0.00 89 1015.9
20260906063100 74 360 2.0 11.0 0.00 0.00 0.00 87 1015.7
20260906061559 74 360 4.0 13.0 0.00 0.00 0.00 87 1015.6
20260906060136 75 0 3.0 8.0 0.00 0.00 0.00 87 1015.5
20260906054612 75 360 1.0 6.0 0.00 0.00 0.00 86 1015.4
20260906053059 76 360 2.0 5.0 0.00 0.00 0.00 86 1015.2
20260906051559 76 51 2.0 10.0 0.00 0.00 0.00 85 1015.0
20260906044559 77 55 1.0 11.0 0.00 0.00 0.00 85 1015.0
20260906043054 78 111 1.0 9.0 0.00 0.00 0.00 85 1014.6
20260906041559 78 87 3.0 9.0 0.00 0.00 0.00 85 1014.6
20260906040105 79 54 3.0 9.0 0.00 0.00 0.00 84 1014.5
20260906034604 80 30 3.0 11.0 0.00 0.00 0.00 84 1014.6
20260906033058 81 67 3.0 10.0 0.00 0.00 0.00 83 1014.4
20260906031557 82 43 3.0 9.0 0.00 0.00 0.00 83 1014.3
20260906030059 83 54 7.0 15.0 0.00 0.00 0.00 82 1014.1
20260906024557 84 59 4.0 13.0 0.00 0.00 0.00 81 1014.0
20260906023058 85 40 4.0 10.0 0.00 0.00 0.00 80 1013.6
20260906021606 85 34 5.0 11.0 0.00 0.00 0.00 79 1013.4
20260906014602 87 86 2.0 8.0 0.00 0.00 0.00 78 1012.9
20260906013058 87 44 3.0 9.0 0.00 0.00 0.00 78 1012.9
20260906011555 87 42 1.0 5.0 0.00 0.00 0.00 77 1012.7
20260906010140 88 48 2.0 4.0 0.00 0.00 0.00 76 1012.6
20260906004616 88 69 0.0 2.0 0.00 0.00 0.00 74 1012.3
20260906003102 89 0 1.0 4.0 0.00 0.00 0.00 73 1012.1
20260906001607 89 63 1.0 4.0 0.00 0.00 0.00 72 1012.2
20260906000100 90 29 2.0 6.0 0.00 0.00 0.00 71 1012.2
20260905234604 91 58 1.0 4.0 0.00 0.00 0.00 70 1012.2
20260905233059 92 64 1.0 10.0 0.00 0.00 0.00 67 1012.5
20260905231559 93 40 1.0 8.0 0.00 0.00 0.00 64 1012.4
20260905224602 94 15 3.0 8.0 0.00 0.00 0.00 62 1012.2
20260905223104 94 355 1.0 6.0 0.00 0.00 0.00 63 1012.2
20260905221608 94 42 3.0 9.0 0.00 0.00 0.00 61 1012.1
20260905220100 95 0 2.0 10.0 0.00 0.00 0.00 61 1012.1
20260905214601 96 30 2.0 10.0 0.00 0.00 0.00 59 1012.1
20260905213101 97 53 2.0 6.0 0.00 0.00 0.00 58 1012.1
20260905211607 97 22 2.0 11.0 0.00 0.00 0.00 59 1012.2
20260905210120 96 355 2.0 8.0 0.00 0.00 0.00 58 1012.2
20260905204602 96 43 2.0 8.0 0.00 0.00 0.00 58 1012.3
20260905203058 97 306 1.0 6.0 0.00 0.00 0.00 56 1012.5
20260905201559 98 5 2.0 8.0 0.00 0.00 0.00 55 1012.5
20260905200122 98 28 3.0 9.0 0.00 0.00 0.00 53 1012.5
20260905194603 98 290 3.0 9.0 0.00 0.00 0.00 53 1012.7
20260905193102 98 28 1.0 9.0 0.00 0.00 0.00 56 1012.7
20260905191602 97 26 2.0 11.0 0.00 0.00 0.00 55 1012.8
20260905190104 97 36 2.0 10.0 0.00 0.00 0.00 56 1013.0
20260905184611 97 277 1.0 4.0 0.00 0.00 0.00 55 1013.1
20260905183107 96 268 2.0 6.0 0.00 0.00 0.00 57 1013.3
20260905181604 95 5 2.0 7.0 0.00 0.00 0.00 60 1013.4
20260905174603 94 30 3.0 7.0 0.00 0.00 0.00 58 1013.6
20260905173103 94 312 3.0 8.0 0.00 0.00 0.00 58 1013.6
20260905171602 93 313 1.0 7.0 0.00 0.00 0.00 59 1013.7
20260905170100 92 284 1.0 6.0 0.00 0.00 0.00 61 1013.9
20260905164557 92 51 1.0 6.0 0.00 0.00 0.00 62 1014.0
20260905163104 92 44 1.0 5.0 0.00 0.00 0.00 64 1014.0
20260905161557 92 360 1.0 6.0 0.00 0.00 0.00 65 1014.0
20260905160059 92 30 1.0 5.0 0.00 0.00 0.00 65 1014.2
20260905154605 91 257 0.0 4.0 0.00 0.00 0.00 65 1014.1
20260905153103 91 311 1.0 3.0 0.00 0.00 0.00 63 1014.0
20260905151628 91 284 1.0 5.0 0.00 0.00 0.00 64 1013.9
20260905150058 90 0 0.0 3.0 0.00 0.00 0.00 67 1013.8
20260905144558 88 252 0.0 3.0 0.00 0.00 0.00 70 1013.8
20260905143103 86 0 0.0 4.0 0.00 0.00 0.00 72 1013.9
20260905141558 85 275 2.0 6.0 0.00 0.00 0.00 74 1013.9
20260905140058 82 334 1.0 3.0 0.00 0.00 0.00 80 1014.0
20260905134604 80 0 0.0 2.0 0.00 0.00 0.00 85 1013.9
20260905133056 78 38 0.0 1.0 0.00 0.00 0.00 90 1013.9
20260905131609 76 0 0.0 0.0 0.00 0.00 0.00 92 1014.0
20260905130100 75 0 0.0 2.0 0.00 0.00 0.00 92 1013.9